Flag for Germany Weather past 2 weeks in Göttingen, Lower Saxony, Germany

Now
41 °F

Partly sunny.


Feels Like: 33 °F
Forecast: 35 / 46 °F
Wind: 14 mph from West

Location: Kassel / Calden

Current Time: Mar 5, 2015 at 3:42:16 PM

Latest Report: Mar 5, 2015 at 3:20 PM


Visibility: N/A

Pressure: 30.57 "Hg

Humidity: 76%

Dew point: 34 °F

Location of GöttingenLocation

Historic Weather in Göttingen — Graph

°F

Göttingen temperature yesterday

Maximum temperature yesterday: 41 °F (at 3:20 PM)
Minimum temperature yesterday: 32 °F (at 5:50 AM)
Average temperature yesterday: 37 °F

Past Weeks' High & Low Weather Summary

 TemperatureHumidityPressure
High48 °F (Feb 20, 9:20 PM)100% (Feb 23, 8:50 AM)30.66 "Hg (Feb 23, 8:50 AM)
Low28 °F (Feb 19, 5:50 AM)42% (Mar 2, 3:50 PM)29.36 "Hg (Feb 21, 6:50 AM)
Average38 °F77%29.91 "Hg
* Reported Feb 18 2:20 PM — Mar 5 2:20 PM, Göttingen, Weather by CustomWeather, © 2015

Note: Actual official high and low records may vary slightly from our data, if they occured in-between our weather recording intervals... More about our weather records

Advertising

Göttingen weather history for previous 24 hours

 ConditionsComfort  
Time TempWeatherWind HumidityBarometerVisibility
2:20 PM
Thu, Mar 5
41 °FPartly sunny.14 mph76%30.57 "HgN/A
1:50 PM41 °FBroken clouds.14 mph76%30.57 "HgN/A
1:20 PM41 °FPartly sunny.15 mph76%30.57 "HgN/A
12:50 PM41 °FBroken clouds.14 mph76%30.57 "HgN/A
12:20 PM39 °FBroken clouds.14 mph81%30.57 "HgN/A
11:50 AM39 °FPartly sunny.15 mph75%30.57 "HgN/A
11:20 AM37 °FPartly sunny.14 mph81%30.57 "HgN/A
10:50 AM39 °FPartly sunny.12 mph81%30.57 "HgN/A
10:20 AM37 °FPartly sunny.14 mph81%30.57 "HgN/A
9:50 AM37 °FPartly sunny.13 mph87%30.54 "HgN/A
9:20 AM37 °FPartly sunny.12 mph81%30.54 "HgN/A
8:50 AM36 °FPartly sunny.13 mph87%30.54 "HgN/A
8:20 AM36 °FPartly sunny.12 mph93%30.54 "HgN/A
7:50 AM34 °FPartly sunny.12 mph93%30.51 "HgN/A
7:20 AM34 °FPartly sunny.12 mph87%30.51 "HgN/A
6:50 AM34 °FPassing clouds.14 mph87%30.51 "HgN/A
6:20 AM34 °FPartly cloudy.14 mph87%30.51 "HgN/A
5:50 AM36 °FPartly cloudy.14 mph81%30.51 "HgN/A
9:50 PM
Wed, Mar 4
36 °FLight rain. Partly cloudy.10 mph93%30.27 "HgN/A
9:20 PM36 °FLight rain. Mostly cloudy.14 mph93%30.27 "HgN/A
8:50 PM37 °FOvercast.16 mph81%30.27 "HgN/A
8:20 PM37 °FOvercast.13 mph81%30.24 "HgN/A
7:50 PM37 °FPartly cloudy.13 mph81%30.24 "HgN/A
7:20 PM37 °FPassing clouds.14 mph81%30.24 "HgN/A
6:50 PM37 °FLight rain. Passing clouds.10 mph81%30.24 "HgN/A
6:20 PM37 °FPassing clouds.10 mph81%30.24 "HgN/A
5:50 PM37 °FScattered clouds.13 mph81%30.21 "HgN/A
5:20 PM39 °FLight rain. Partly sunny.9 mph81%30.21 "HgN/A
4:50 PM41 °FLight rain. Partly sunny.13 mph70%30.21 "HgN/A
4:20 PM39 °FDrizzle. Partly sunny.12 mph75%30.21 "HgN/A
3:50 PM39 °FBroken clouds.14 mph81%30.21 "HgN/A
3:20 PM41 °FPartly sunny.13 mph70%30.18 "HgN/A
Weather by CustomWeather, © 2015

See weather overviewHow to use our weather pages